This is the latest recevied weather packets stored in our database for station/object N8TWM-13. If no packets are shown the sender has not sent any weather packets the latest 10 day(s).
| Time | Temp. | Humidity | Pressure | Rain* | Wind** | Luminosity | Snow |
|---|---|---|---|---|---|---|---|
| 1777471794 | 12.22° C | 92% | 1010 hPa | 0 mm | - | 162 W/m² | - |
| 1777471491 | 11.67° C | 92% | 1010.2 hPa | 0 mm | - | 186 W/m² | - |
| 1777471187 | 11.67° C | 93% | 1010 hPa | 0 mm | - | 234 W/m² | - |
| 1777470884 | 11.67° C | 93% | 1010 hPa | 0 mm | - | 240 W/m² | - |
| 1777470581 | 11.67° C | 94% | 1010.3 hPa | 0 mm | - | 198 W/m² | - |
| 1777470277 | 11.67° C | 94% | 1010.4 hPa | 0 mm | - | 140 W/m² | - |
| 1777469973 | 11.11° C | 94% | 1010.4 hPa | 0 mm | - | 170 W/m² | - |
| 1777469670 | 11.11° C | 94% | 1010.7 hPa | 0 mm | - | 143 W/m² | - |
| 1777469366 | 11.11° C | 94% | 1010.8 hPa | 1.27 mm | - | 111 W/m² | - |
| 1777469061 | 11.11° C | 94% | 1010.6 hPa | 1.27 mm | - | 112 W/m² | - |
| 1777468756 | 11.11° C | 94% | 1011 hPa | 1.27 mm | - | 100 W/m² | - |
| 1777468452 | 11.11° C | 94% | 1011 hPa | 0 mm | - | 61 W/m² | - |
| 1777468149 | 11.67° C | 94% | 1010.9 hPa | 0 mm | - | 42 W/m² | - |
| 1777467845 | 11.67° C | 94% | 1010.8 hPa | 1.78 mm | - | 72 W/m² | - |
| 1777467541 | 11.67° C | 94% | 1010.8 hPa | 1.78 mm | - | 103 W/m² | - |
| 1777467235 | 11.67° C | 94% | 1010.8 hPa | 1.27 mm | - | 78 W/m² | - |
| 1777466933 | 11.67° C | 94% | 1010.8 hPa | 4.32 mm | - | 39 W/m² | - |
| 1777466631 | 11.67° C | 94% | 1010.9 hPa | 6.1 mm | - | 31 W/m² | - |
| 1777466327 | 11.67° C | 94% | 1011.3 hPa | 8.89 mm | - | 30 W/m² | - |
| 1777466023 | 11.67° C | 93% | 1011.2 hPa | 6.6 mm | - | 22 W/m² | - |
| 1777465720 | 11.67° C | 93% | 1011.5 hPa | 6.1 mm | - | 6 W/m² | - |
| 1777465416 | 11.11° C | 93% | 1011.2 hPa | 4.32 mm | - | 13 W/m² | - |
| 1777465114 | 11.11° C | 93% | 1010.8 hPa | 0 mm | - | 12 W/m² | - |
| 1777464810 | 11.67° C | 93% | 1010.6 hPa | 0 mm | - | 29 W/m² | - |
| 1777464505 | 11.11° C | 93% | 1010.9 hPa | 0 mm | - | 42 W/m² | - |
* Rain latest hour (hover to see other rain measurements)
** Current wind speed in m/s (hover to see current wind gust speed)